,,PA_Meas_PMT16A,,PR_Meas_QMR101_102,,RH_Meas_QMH101,,SR_Meas_QMS101,,TA_Meas_QMH101,,GenWind,,GenWind,
time,status,PA,status,PR,status,RH,status,SR,status,TA,status,DirAvg,status,SpdAvg,
2016-08-09, 14:21:04,VALID,919.325,VALID,0,INVALID,112.827,VALID,107.763,VALID,19.3547,VALID,11,VALID,0,
2016-08-09, 14:22:04,VALID,919.288,VALID,0,INVALID,112.994,VALID,112.491,VALID,19.4327,VALID,11,VALID,0,
2016-08-09, 14:23:04,VALID,919.307,VALID,0,INVALID,113.04,VALID,116.574,VALID,19.5093,VALID,11,VALID,0,
2016-08-09, 14:24:04,VALID,919.306,VALID,0,INVALID,112.666,VALID,120.979,VALID,19.5498,VALID,9,VALID,0,
2016-08-09, 14:25:04,VALID,919.331,VALID,0,INVALID,112.506,VALID,124.632,VALID,19.5873,VALID,10,VALID,0,
2016-08-09, 14:26:04,VALID,919.349,VALID,0,INVALID,112.689,VALID,128.285,VALID,19.6278,VALID,355,VALID,0,
2016-08-09, 14:27:04,VALID,919.338,VALID,0,INVALID,111.942,VALID,132.045,VALID,19.6473,VALID,350,VALID,0,
2016-08-09, 14:28:04,VALID,919.35,VALID,0,INVALID,111.691,VALID,136.45,VALID,19.6473,VALID,5,VALID,0,
2016-08-09, 14:29:04,VALID,919.326,VALID,0,INVALID,111.454,VALID,141.07,VALID,19.6458,VALID,8,VALID,0,
2016-08-09, 14:30:04,VALID,919.298,VALID,0,INVALID,112.118,VALID,145.046,VALID,19.6848,VALID,10,VALID,0,
2016-08-09, 14:31:04,VALID,919.274,VALID,0,INVALID,112.522,VALID,149.558,VALID,19.7043,VALID,7,VALID,0,
2016-08-09, 14:32:04,VALID,919.283,VALID,0,INVALID,111.942,VALID,151.922,VALID,19.7043,VALID,3,VALID,0,
2016-08-09, 14:33:04,VALID,919.34,VALID,0,INVALID,111.919,VALID,155.682,VALID,19.7823,VALID,5,VALID,0,
2016-08-09, 14:34:04,VALID,919.31,VALID,0,INVALID,111.721,VALID,162.236,VALID,19.8408,VALID,5,VALID,0,
2016-08-09, 14:35:04,VALID,919.334,VALID,0,INVALID,112.476,VALID,167.286,VALID,19.9383,VALID,5,VALID,0,
2016-08-09, 14:36:04,VALID,919.365,VALID,0,INVALID,112.278,VALID,168.145,VALID,19.9953,VALID,10,VALID,0,
2016-08-09, 14:37:04,VALID,919.403,VALID,0,INVALID,112.705,VALID,169.22,VALID,20.0944,VALID,10,VALID,0,
2016-08-09, 14:38:04,VALID,919.383,VALID,0,INVALID,112.316,VALID,171.261,VALID,20.1529,VALID,11,VALID,0,
2016-08-09, 14:39:04,VALID,919.37,VALID,0,INVALID,111.744,VALID,171.154,VALID,20.2114,VALID,11,VALID,0,
2016-08-09, 14:40:04,VALID,919.401,VALID,0,INVALID,111.264,VALID,166.856,VALID,20.2699,VALID,11,VALID,0,
2016-08-09, 14:41:04,VALID,919.404,VALID,0,VALID,104,VALID,159.98,VALID,20.3089,VALID,11,VALID,0,
2016-08-09, 14:42:04,VALID,919.401,VALID,0,INVALID,110.905,VALID,167.286,VALID,20.3869,VALID,7,VALID,0,
2016-08-09, 14:43:04,VALID,919.393,VALID,0,INVALID,110.722,VALID,172.873,VALID,20.4454,VALID,352,VALID,0,
2016-08-09, 14:44:04,VALID,919.43,VALID,0,INVALID,109.312,VALID,175.666,VALID,20.4845,VALID,346,VALID,0,
2016-08-09, 14:45:04,VALID,919.38,VALID,0,VALID,104,VALID,175.237,VALID,20.5625,VALID,347,VALID,0,
2016-08-09, 14:46:04,VALID,919.395,VALID,0,VALID,99.8972,VALID,171.154,VALID,20.5625,VALID,350,VALID,0,
2016-08-09, 14:47:04,VALID,919.426,VALID,0,VALID,101.468,VALID,166.964,VALID,20.621,VALID,349,VALID,0,
2016-08-09, 14:48:04,VALID,919.41,VALID,0,VALID,104,VALID,172.55,VALID,20.7185,VALID,348,VALID,0,
2016-08-09, 14:49:04,VALID,919.416,VALID,0,VALID,102.131,VALID,175.881,VALID,20.678,VALID,301,VALID,0,
2016-08-09, 14:50:04,VALID,919.393,VALID,0,VALID,99.3407,VALID,178.137,VALID,20.6194,VALID,301,VALID,0,
2016-08-09, 14:51:04,VALID,919.388,VALID,0,VALID,95.7044,VALID,176.203,VALID,20.543,VALID,301,VALID,0,
2016-08-09, 14:52:04,VALID,919.412,VALID,0,VALID,99.0739,VALID,176.526,VALID,20.4634,VALID,301,VALID,0,
2016-08-09, 14:53:04,VALID,919.404,VALID,0,VALID,102.802,VALID,176.633,VALID,20.4829,VALID,301,VALID,0,
2016-08-09, 14:54:04,VALID,919.448,VALID,0,VALID,104,VALID,182.865,VALID,20.5024,VALID,301,VALID,0,
2016-08-09, 14:55:04,VALID,919.473,VALID,0,VALID,104,VALID,190.493,VALID,20.5804,VALID,301,VALID,0,
2016-08-09, 14:56:04,VALID,919.515,VALID,0,VALID,103.785,VALID,190.815,VALID,20.6795,VALID,313,VALID,0,
2016-08-09, 14:57:04,VALID,919.487,VALID,0,VALID,95.1402,VALID,192.642,VALID,20.8145,VALID,324,VALID,0,
2016-08-09, 14:58:04,VALID,919.492,VALID,0,VALID,86.9603,VALID,196.832,VALID,20.912,VALID,10,VALID,0,
2016-08-09, 14:59:04,VALID,919.476,VALID,0,VALID,90.9092,VALID,196.51,VALID,21.0876,VALID,10,VALID,0,
2016-08-09, 15:00:04,VALID,919.487,VALID,0,VALID,86.2666,VALID,204.675,VALID,21.2242,VALID,10,VALID,0,
2016-08-09, 15:01:04,VALID,919.507,VALID,0,VALID,86.5258,VALID,203.386,VALID,21.3803,VALID,10,VALID,0,
2016-08-09, 15:02:04,VALID,919.486,VALID,0,VALID,89.0034,VALID,200.378,VALID,21.5559,VALID,10,VALID,0,
2016-08-09, 15:03:04,VALID,919.498,VALID,0,VALID,88.2944,VALID,201.237,VALID,21.6908,VALID,10,VALID,0,
2016-08-09, 15:04:04,VALID,919.538,VALID,0,VALID,88.7594,VALID,201.13,VALID,21.79,VALID,10,VALID,0,
2016-08-09, 15:05:04,VALID,919.534,VALID,0,VALID,86.8841,VALID,203.279,VALID,21.829,VALID,7,VALID,0,
2016-08-09, 15:06:04,VALID,919.567,VALID,0,VALID,89.9639,VALID,206.717,VALID,21.8469,VALID,1,VALID,0,
2016-08-09, 15:07:04,VALID,919.535,VALID,0,VALID,88.363,VALID,208.651,VALID,21.8859,VALID,356,VALID,0,
2016-08-09, 15:08:04,VALID,919.599,VALID,0,VALID,82.5235,VALID,212.196,VALID,21.8859,VALID,23,VALID,0,
2016-08-09, 15:09:04,VALID,919.611,VALID,0,VALID,84.4446,VALID,178.03,VALID,21.9054,VALID,18,VALID,0,
2016-08-09, 15:10:04,VALID,919.629,VALID,0,VALID,85.3823,VALID,179.427,VALID,21.9071,VALID,18,VALID,0,
2016-08-09, 15:11:04,VALID,919.661,VALID,0,VALID,89.8801,VALID,177.923,VALID,21.9071,VALID,19,VALID,0,
2016-08-09, 15:12:04,VALID,919.651,VALID,0,VALID,97.8542,VALID,189.096,VALID,22.0047,VALID,19,VALID,0,
2016-08-09, 15:13:04,VALID,919.66,VALID,0,VALID,84.4217,VALID,211.981,VALID,22.0437,VALID,19,VALID,0,
2016-08-09, 15:14:04,VALID,919.665,VALID,0,VALID,84.9553,VALID,226.593,VALID,22.1429,VALID,19,VALID,0,
2016-08-09, 15:15:04,VALID,919.7,VALID,0,VALID,82.0356,VALID,231.643,VALID,22.2176,VALID,19,VALID,0,
2016-08-09, 15:16:04,VALID,919.669,VALID,0,VALID,79.7486,VALID,231.321,VALID,22.2388,VALID,16,VALID,0,
2016-08-09, 15:17:04,VALID,919.676,VALID,0,VALID,80.9912,VALID,217.998,VALID,22.2974,VALID,17,VALID,0,
2016-08-09, 15:18:04,VALID,919.681,VALID,0,VALID,79.4207,VALID,236.048,VALID,22.3364,VALID,18,VALID,0,
2016-08-09, 15:19:04,VALID,919.678,VALID,0,VALID,77.7588,VALID,250.123,VALID,22.2957,VALID,23,VALID,0,
2016-08-09, 15:20:04,VALID,919.692,VALID,0,VALID,78.3154,VALID,247.33,VALID,22.3542,VALID,22,VALID,0,
2016-08-09, 15:21:04,VALID,919.681,VALID,0,VALID,79.9391,VALID,227.775,VALID,22.4128,VALID,22,VALID,0,
2016-08-09, 15:22:04,VALID,919.709,VALID,0,VALID,81.3876,VALID,238.842,VALID,22.4713,VALID,22,VALID,0,
2016-08-09, 15:23:04,VALID,919.685,VALID,0,VALID,80.3356,VALID,251.735,VALID,22.5884,VALID,22,VALID,0,
2016-08-09, 15:24:04,VALID,919.7,VALID,0,VALID,77.2023,VALID,257.107,VALID,22.686,VALID,16,VALID,0,
2016-08-09, 15:25:04,VALID,919.712,VALID,0,VALID,74.5113,VALID,260.867,VALID,22.725,VALID,360,VALID,0,
2016-08-09, 15:26:04,VALID,919.671,VALID,0,VALID,76.783,VALID,264.413,VALID,22.725,VALID,10,VALID,0,
2016-08-09, 15:27:04,VALID,919.666,VALID,0,VALID,75.67,VALID,252.272,VALID,22.8421,VALID,30,VALID,0,
2016-08-09, 15:28:04,VALID,919.693,VALID,0,VALID,74.4427,VALID,256.032,VALID,22.8421,VALID,26,VALID,0,
2016-08-09, 15:29:04,VALID,919.681,VALID,0,VALID,74.6942,VALID,267.851,VALID,22.8421,VALID,26,VALID,0,
2016-08-09, 15:30:04,VALID,919.659,VALID,0,VALID,75.4947,VALID,279.669,VALID,22.9185,VALID,26,VALID,0,
2016-08-09, 15:31:04,VALID,919.669,VALID,0,VALID,75.2431,VALID,281.603,VALID,22.9965,VALID,329,VALID,0,
2016-08-09, 15:32:04,VALID,919.681,VALID,0,VALID,76.2647,VALID,286.331,VALID,23.0373,VALID,329,VALID,0,
2016-08-09, 15:33:04,VALID,919.67,VALID,0,VALID,73.848,VALID,289.984,VALID,23.0178,VALID,329,VALID,0,
2016-08-09, 15:34:04,VALID,919.644,VALID,0,VALID,74.374,VALID,250.875,VALID,23.0763,VALID,329,VALID,0,
2016-08-09, 15:35:04,VALID,919.67,VALID,0,VALID,74.679,VALID,215.312,VALID,23.1917,VALID,332,VALID,0,
2016-08-09, 15:36:04,VALID,919.66,VALID,0,VALID,71.8431,VALID,197.692,VALID,23.2715,VALID,332,VALID,0,
2016-08-09, 15:37:04,VALID,919.684,VALID,0,VALID,71.744,VALID,196.51,VALID,23.3301,VALID,357,VALID,0,
2016-08-09, 15:38:04,VALID,919.682,VALID,0,VALID,73.7794,VALID,197.047,VALID,23.3106,VALID,357,VALID,0,
2016-08-09, 15:39:04,VALID,919.72,VALID,0,VALID,73.2382,VALID,197.799,VALID,23.2502,VALID,356,VALID,0,
2016-08-09, 15:40:04,VALID,919.697,VALID,0,VALID,72.2929,VALID,198.659,VALID,23.1154,VALID,352,VALID,0,
2016-08-09, 15:41:04,VALID,919.717,VALID,0,VALID,72.3462,VALID,200.378,VALID,22.9592,VALID,352,VALID,0,
2016-08-09, 15:42:04,VALID,919.718,VALID,0,VALID,75.6777,VALID,202.097,VALID,22.8634,VALID,352,VALID,0,
2016-08-09, 15:43:04,VALID,919.721,VALID,0,VALID,77.9494,VALID,204.461,VALID,22.7641,VALID,352,VALID,0,
2016-08-09, 15:44:04,VALID,919.723,VALID,0,VALID,76.3104,VALID,207.469,VALID,22.6257,VALID,328,VALID,0,
2016-08-09, 15:45:04,VALID,919.728,VALID,0,VALID,78.4602,VALID,209.833,VALID,22.5086,VALID,335,VALID,0,
2016-08-09, 15:46:04,VALID,919.71,VALID,0,VALID,79.5732,VALID,212.411,VALID,22.4713,VALID,349,VALID,0,
2016-08-09, 15:47:04,VALID,919.688,VALID,0,VALID,78.5517,VALID,213.915,VALID,22.3933,VALID,350,VALID,0,
2016-08-09, 15:48:04,VALID,919.686,VALID,0,VALID,82.2643,VALID,215.742,VALID,22.3933,VALID,4,VALID,0,
2016-08-09, 15:49:04,VALID,919.674,VALID,0,VALID,80.2746,VALID,218.428,VALID,22.333,VALID,349,VALID,0,
2016-08-09, 15:50:04,VALID,919.66,VALID,0,VALID,80.4347,VALID,221.544,VALID,22.3542,VALID,348,VALID,0,
2016-08-09, 15:51:04,VALID,919.677,VALID,0,VALID,81.014,VALID,225.626,VALID,22.3737,VALID,353,VALID,0,
2016-08-09, 15:52:04,VALID,919.671,VALID,0,VALID,79.1158,VALID,226.808,VALID,22.3933,VALID,349,VALID,0,
2016-08-09, 15:53:04,VALID,919.662,VALID,0,VALID,81.3037,VALID,232.503,VALID,22.4128,VALID,333,VALID,0,
2016-08-09, 15:54:04,VALID,919.675,VALID,0,VALID,80.0535,VALID,247.222,VALID,22.4323,VALID,339,VALID,0,
2016-08-09, 15:55:04,VALID,919.679,VALID,0,VALID,82.0356,VALID,243.784,VALID,22.4696,VALID,12,VALID,0,
2016-08-09, 15:56:04,VALID,919.679,VALID,0,VALID,82.2567,VALID,246.148,VALID,22.5494,VALID,332,VALID,0,
2016-08-09, 15:57:04,VALID,919.704,VALID,0,VALID,81.5172,VALID,253.131,VALID,22.5689,VALID,343,VALID,0,
2016-08-09, 15:58:04,VALID,919.697,VALID,0,VALID,80.0154,VALID,260.437,VALID,22.6062,VALID,339,VALID,0,
2016-08-09, 15:59:04,VALID,919.662,VALID,0,VALID,80.7777,VALID,266.347,VALID,22.6452,VALID,325,VALID,0,
2016-08-09, 16:00:04,VALID,919.656,VALID,0,VALID,80.8158,VALID,274.834,VALID,22.6257,VALID,354,VALID,0,
2016-08-09, 16:01:04,VALID,919.683,VALID,0,VALID,79.3216,VALID,288.802,VALID,22.686,VALID,322,VALID,0.00820312,
2016-08-09, 16:02:04,VALID,919.637,VALID,0,VALID,80.9454,VALID,301.372,VALID,22.7445,VALID,2,VALID,0,
2016-08-09, 16:03:04,VALID,919.641,VALID,0,VALID,81.8069,VALID,303.629,VALID,22.8439,VALID,21,VALID,0,
2016-08-09, 16:04:04,VALID,919.621,VALID,0,VALID,78.1934,VALID,320.927,VALID,22.8794,VALID,17,VALID,0.301172,
2016-08-09, 16:05:04,VALID,919.607,VALID,0,VALID,80.206,VALID,327.696,VALID,22.9202,VALID,357,VALID,0.00507812,
2016-08-09, 16:06:04,VALID,919.571,VALID,0,VALID,79.7486,VALID,353.696,VALID,22.9185,VALID,358,VALID,0,
2016-08-09, 16:07:04,VALID,919.569,VALID,0,VALID,78.3154,VALID,348.432,VALID,22.9965,VALID,21,VALID,0,
2016-08-09, 16:08:04,VALID,919.516,VALID,0,VALID,79.5808,VALID,328.662,VALID,23.1331,VALID,19,VALID,0,
2016-08-09, 16:09:04,VALID,919.506,VALID,0,VALID,77.9113,VALID,327.481,VALID,23.1544,VALID,318,VALID,0,
2016-08-09, 16:10:04,VALID,919.488,VALID,0,VALID,79.9696,VALID,339.407,VALID,23.1527,VALID,319,VALID,0,
2016-08-09, 16:11:04,VALID,919.488,VALID,0,VALID,81.2275,VALID,330.382,VALID,23.0941,VALID,318,VALID,0,
2016-08-09, 16:12:04,VALID,919.511,VALID,0,VALID,79.4665,VALID,329.092,VALID,22.9965,VALID,299,VALID,0,
2016-08-09, 16:13:04,VALID,919.503,VALID,0,VALID,74.3207,VALID,353.589,VALID,22.8794,VALID,309,VALID,0,
2016-08-09, 16:14:04,VALID,919.485,VALID,0,VALID,76.2951,VALID,333.39,VALID,22.9185,VALID,309,VALID,0,
2016-08-09, 16:15:04,VALID,919.529,VALID,0,VALID,77.8275,VALID,328.77,VALID,23.0746,VALID,309,VALID,0,
2016-08-09, 16:16:04,VALID,919.536,VALID,0,VALID,79.2149,VALID,330.059,VALID,23.1722,VALID,297,VALID,0,
2016-08-09, 16:17:04,VALID,919.502,VALID,0,VALID,74.374,VALID,328.125,VALID,23.2502,VALID,329,VALID,0,
2016-08-09, 16:18:04,VALID,919.515,VALID,0,VALID,74.9458,VALID,344.456,VALID,23.4259,VALID,329,VALID,0,
2016-08-09, 16:19:04,VALID,919.487,VALID,0,VALID,74.8696,VALID,343.274,VALID,23.5803,VALID,329,VALID,0,
2016-08-09, 16:20:04,VALID,919.49,VALID,0,VALID,72.9408,VALID,334.249,VALID,23.6193,VALID,320,VALID,0,
2016-08-09, 16:21:04,VALID,919.498,VALID,0,VALID,73.0018,VALID,393.879,VALID,23.5821,VALID,12,VALID,0,
2016-08-09, 16:22:04,VALID,919.49,VALID,0,VALID,73.0476,VALID,365.515,VALID,23.6211,VALID,31,VALID,0,
2016-08-09, 16:23:04,VALID,919.453,VALID,0,VALID,70.4937,VALID,360.465,VALID,23.7169,VALID,321,VALID,0,
2016-08-09, 16:24:04,VALID,919.482,VALID,0,VALID,73.7718,VALID,379.697,VALID,23.7773,VALID,32,VALID,0,
2016-08-09, 16:25:04,VALID,919.442,VALID,0,VALID,73.6193,VALID,409.136,VALID,23.8163,VALID,13,VALID,0,
2016-08-09, 16:26:04,VALID,919.488,VALID,0,VALID,75.1974,VALID,419.987,VALID,23.8163,VALID,26,VALID,0.210938,
2016-08-09, 16:27:04,VALID,919.485,VALID,0,VALID,72.8417,VALID,382.491,VALID,23.6797,VALID,12,VALID,1.20469,
2016-08-09, 16:28:04,VALID,919.45,VALID,0,VALID,77.37,VALID,423.963,VALID,23.5626,VALID,1,VALID,0.105469,
2016-08-09, 16:29:04,VALID,919.452,VALID,0,VALID,72.4834,VALID,452.757,VALID,23.5998,VALID,285,VALID,0.00585938,
2016-08-09, 16:30:04,VALID,919.495,VALID,0,VALID,75.8225,VALID,395.169,VALID,23.6797,VALID,269,VALID,0,
2016-08-09, 16:31:04,VALID,919.499,VALID,0,VALID,72.4225,VALID,476.179,VALID,23.756,VALID,343,VALID,0,
2016-08-09, 16:32:04,VALID,919.481,VALID,0,VALID,73.787,VALID,413.971,VALID,23.7755,VALID,317,VALID,0.197656,
2016-08-09, 16:33:04,VALID,919.495,VALID,0,VALID,72.796,VALID,407.417,VALID,23.8554,VALID,342,VALID,0,
2016-08-09, 16:34:04,VALID,919.453,VALID,0,VALID,71.5229,VALID,411.392,VALID,23.8926,VALID,327,VALID,0,
2016-08-09, 16:35:04,VALID,919.422,VALID,0,VALID,71.378,VALID,472.741,VALID,24.0878,VALID,353,VALID,0,
2016-08-09, 16:36:04,VALID,919.421,VALID,0,VALID,71.2179,VALID,495.196,VALID,24.3221,VALID,351,VALID,0,
2016-08-09, 16:37:04,VALID,919.367,VALID,0,VALID,68.504,VALID,396.028,VALID,24.4997,VALID,352,VALID,0,
2016-08-09, 16:38:04,VALID,919.402,VALID,0,VALID,67.6349,VALID,416.012,VALID,24.693,VALID,40,VALID,0,
2016-08-09, 16:39:04,VALID,919.417,VALID,0,VALID,65.973,VALID,435.889,VALID,24.8474,VALID,40,VALID,0,
2016-08-09, 16:40:04,VALID,919.433,VALID,0,VALID,65.0201,VALID,355.093,VALID,24.8492,VALID,40,VALID,0,
2016-08-09, 16:41:04,VALID,919.46,VALID,0,VALID,66.7506,VALID,361.217,VALID,24.7516,VALID,40,VALID,0,
2016-08-09, 16:42:04,VALID,919.396,VALID,0,VALID,66.7887,VALID,344.027,VALID,24.8864,VALID,40,VALID,0,
2016-08-09, 16:43:04,VALID,919.434,VALID,0,VALID,66.9488,VALID,332.315,VALID,24.945,VALID,40,VALID,0,
2016-08-09, 16:44:04,VALID,919.399,VALID,0,VALID,66.6896,VALID,329.092,VALID,25.0036,VALID,40,VALID,0,
2016-08-09, 16:45:04,VALID,919.401,VALID,0,VALID,69.8686,VALID,342.952,VALID,25.0055,VALID,40,VALID,0,
2016-08-09, 16:46:04,VALID,919.4,VALID,0,VALID,67.1166,VALID,351.762,VALID,24.9255,VALID,37,VALID,0,
2016-08-09, 16:47:04,VALID,919.382,VALID,0,VALID,67.2843,VALID,381.631,VALID,24.9274,VALID,20,VALID,0,
2016-08-09, 16:48:04,VALID,919.387,VALID,0,VALID,67.269,VALID,396.78,VALID,24.9059,VALID,14,VALID,0,
2016-08-09, 16:49:04,VALID,919.432,VALID,0,VALID,66.3466,VALID,382.491,VALID,24.8883,VALID,297,VALID,0,
2016-08-09, 16:50:04,VALID,919.419,VALID,0,VALID,66.3008,VALID,409.781,VALID,24.7302,VALID,294,VALID,0,
2016-08-09, 16:51:04,VALID,919.422,VALID,0,VALID,66.034,VALID,435.889,VALID,24.6521,VALID,324,VALID,0,
2016-08-09, 16:52:04,VALID,919.42,VALID,0,VALID,67.2614,VALID,412.359,VALID,24.6716,VALID,324,VALID,0,
2016-08-09, 16:53:04,VALID,919.394,VALID,0,VALID,67.269,VALID,573.628,VALID,24.8316,VALID,324,VALID,0,
2016-08-09, 16:54:04,VALID,919.382,VALID,0,VALID,64.2654,VALID,487.031,VALID,24.8492,VALID,277,VALID,1.02344,
2016-08-09, 16:55:04,VALID,919.425,VALID,0,VALID,67.4444,VALID,467.369,VALID,24.693,VALID,297,VALID,0,
2016-08-09, 16:56:04,VALID,919.422,VALID,0,VALID,66.5677,VALID,555.041,VALID,24.7711,VALID,295,VALID,0,
2016-08-09, 16:57:04,VALID,919.388,VALID,0,VALID,69.1749,VALID,799.147,VALID,24.7888,VALID,309,VALID,0,
2016-08-09, 16:58:04,VALID,919.396,VALID,0,VALID,68.9462,VALID,603.067,VALID,24.8669,VALID,299,VALID,0,
2016-08-09, 16:59:04,VALID,919.372,VALID,0,VALID,68.748,VALID,502.825,VALID,25.0817,VALID,336,VALID,0,
2016-08-09, 17:00:04,VALID,919.38,VALID,0,VALID,66.5829,VALID,496.593,VALID,25.3355,VALID,336,VALID,0,
2016-08-09, 17:01:04,VALID,919.325,VALID,0,VALID,62.8779,VALID,499.816,VALID,25.4117,VALID,22,VALID,0,
2016-08-09, 17:02:04,VALID,919.314,VALID,0,VALID,65.6452,VALID,572.554,VALID,25.4331,VALID,344,VALID,0,
2016-08-09, 17:03:04,VALID,919.319,VALID,0,VALID,64.9896,VALID,762.188,VALID,25.6089,VALID,17,VALID,0.36875,
2016-08-09, 17:04:04,VALID,919.282,VALID,0,VALID,65.1116,VALID,613.919,VALID,25.8237,VALID,12,VALID,0,
2016-08-09, 17:05:04,VALID,919.278,VALID,0,VALID,64.3188,VALID,486.601,VALID,25.9604,VALID,27,VALID,0,
2016-08-09, 17:06:04,VALID,919.298,VALID,0,VALID,61.0788,VALID,733.501,VALID,25.9975,VALID,310,VALID,0,
2016-08-09, 17:07:04,VALID,919.306,VALID,0,VALID,62.3595,VALID,434.599,VALID,25.98,VALID,7,VALID,0,
2016-08-09, 17:08:04,VALID,919.284,VALID,0,VALID,62.2681,VALID,592.216,VALID,25.7456,VALID,9,VALID,2.40273,
2016-08-09, 17:09:04,VALID,919.3,VALID,0,VALID,63.6555,VALID,734.038,VALID,25.4898,VALID,22,VALID,0.901563,
2016-08-09, 17:10:04,VALID,919.273,VALID,0,VALID,64.6694,VALID,396.673,VALID,25.3531,VALID,11,VALID,1.36094,
2016-08-09, 17:11:04,VALID,919.33,VALID,0,VALID,66.8726,VALID,603.067,VALID,25.2183,VALID,15,VALID,0.630859,
2016-08-09, 17:12:04,VALID,919.325,VALID,0,VALID,66.3847,VALID,582.009,VALID,25.3746,VALID,16,VALID,0.315234,
2016-08-09, 17:13:04,VALID,919.34,VALID,0,VALID,65.3708,VALID,637.878,VALID,25.4136,VALID,351,VALID,0.223828,
2016-08-09, 17:14:04,VALID,919.324,VALID,0,VALID,62.0165,VALID,645.614,VALID,25.355,VALID,273,VALID,0.241797,
2016-08-09, 17:15:04,VALID,919.335,VALID,0,VALID,66.6744,VALID,735.864,VALID,25.3355,VALID,10,VALID,0,
2016-08-09, 17:16:04,VALID,919.351,VALID,0,VALID,62.9389,VALID,753.915,VALID,25.5308,VALID,314,VALID,0,
2016-08-09, 17:17:04,VALID,919.345,VALID,0,VALID,63.5869,VALID,512.494,VALID,25.607,VALID,317,VALID,1.35508,
2016-08-09, 17:18:04,VALID,919.33,VALID,0,VALID,64.4484,VALID,729.848,VALID,25.5503,VALID,22,VALID,3.07344,
2016-08-09, 17:19:04,VALID,919.323,VALID,0,VALID,65.0201,VALID,544.834,VALID,25.5503,VALID,4,VALID,0,
2016-08-09, 17:20:04,VALID,919.343,VALID,0,VALID,65.3784,VALID,535.809,VALID,25.5698,VALID,8,VALID,0.0636719,
2016-08-09, 17:21:04,VALID,919.384,VALID,0,VALID,65.9426,VALID,598.125,VALID,25.6265,VALID,23,VALID,0,
2016-08-09, 17:22:04,VALID,919.389,VALID,0,VALID,61.986,VALID,518.618,VALID,25.7827,VALID,306,VALID,0.00078125,
2016-08-09, 17:23:04,VALID,919.432,VALID,0,VALID,63.625,VALID,567.397,VALID,25.7437,VALID,1,VALID,0,
2016-08-09, 17:24:04,VALID,919.434,VALID,0,VALID,63.221,VALID,461.89,VALID,25.8608,VALID,31,VALID,0,
2016-08-09, 17:25:04,VALID,919.49,VALID,0,VALID,63.0533,VALID,694.822,VALID,25.9585,VALID,31,VALID,0,
2016-08-09, 17:26:04,VALID,919.448,VALID,0,VALID,62.6569,VALID,769.386,VALID,26.1538,VALID,337,VALID,0,
2016-08-09, 17:27:04,VALID,919.463,VALID,0,VALID,60.8882,VALID,597.803,VALID,26.1733,VALID,272,VALID,0,
2016-08-09, 17:28:04,VALID,919.455,VALID,0,VALID,62.7026,VALID,525.172,VALID,26.2319,VALID,18,VALID,0.979297,
2016-08-09, 17:29:04,VALID,919.427,VALID,0,VALID,63.2591,VALID,447.922,VALID,26.2319,VALID,360,VALID,0,
2016-08-09, 17:30:04,VALID,919.463,VALID,0,VALID,64.5017,VALID,457.807,VALID,26.2319,VALID,350,VALID,0.00351562,
2016-08-09, 17:31:04,VALID,919.437,VALID,0,VALID,62.1232,VALID,481.981,VALID,26.1733,VALID,17,VALID,0.545313,
2016-08-09, 17:32:04,VALID,919.426,VALID,0,VALID,63.6936,VALID,506.692,VALID,26.1733,VALID,15,VALID,0,
2016-08-09, 17:33:04,VALID,919.43,VALID,0,VALID,63.4268,VALID,552.462,VALID,26.2885,VALID,27,VALID,0,
2016-08-09, 17:34:04,VALID,919.413,VALID,0,VALID,61.2008,VALID,584.48,VALID,26.3666,VALID,304,VALID,0.0726563,
2016-08-09, 17:35:04,VALID,919.415,VALID,0,VALID,62.8093,VALID,574.703,VALID,26.3882,VALID,22,VALID,0.225,
2016-08-09, 17:36:04,VALID,919.404,VALID,0,VALID,64.3493,VALID,587.381,VALID,26.4272,VALID,45,VALID,0,
2016-08-09, 17:37:04,VALID,919.405,VALID,0,VALID,62.0394,VALID,650.234,VALID,26.5249,VALID,344,VALID,0,
2016-08-09, 17:38:04,VALID,919.404,VALID,0,VALID,61.8411,VALID,600.489,VALID,26.5835,VALID,266,VALID,0,
2016-08-09, 17:39:04,VALID,919.453,VALID,0,VALID,63.16,VALID,630.035,VALID,26.564,VALID,310,VALID,0,
2016-08-09, 17:40:04,VALID,919.456,VALID,0,VALID,61.4295,VALID,643.143,VALID,26.4663,VALID,349,VALID,1.52461,
2016-08-09, 17:41:04,VALID,919.443,VALID,0,VALID,63.5488,VALID,570.62,VALID,26.2319,VALID,3,VALID,0,
2016-08-09, 17:42:04,VALID,919.48,VALID,0,VALID,63.3506,VALID,672.367,VALID,26.0757,VALID,323,VALID,0.149219,
2016-08-09, 17:43:04,VALID,919.46,VALID,0,VALID,64.0824,VALID,618.646,VALID,25.937,VALID,310,VALID,0.488281,
2016-08-09, 17:44:04,VALID,919.461,VALID,0,VALID,62.2223,VALID,615.745,VALID,25.7612,VALID,300,VALID,0.201953,
2016-08-09, 17:45:04,VALID,919.472,VALID,0,VALID,64.7838,VALID,550.206,VALID,25.5269,VALID,344,VALID,0.0925781,
2016-08-09, 17:46:04,VALID,919.438,VALID,0,VALID,67.3224,VALID,552.247,VALID,25.5269,VALID,30,VALID,0.44375,
2016-08-09, 17:47:04,VALID,919.429,VALID,0,VALID,68.5803,VALID,529.148,VALID,25.6655,VALID,6,VALID,0,
2016-08-09, 17:48:04,VALID,919.464,VALID,0,VALID,67.2385,VALID,569.116,VALID,25.8003,VALID,344,VALID,0.625391,
2016-08-09, 17:49:04,VALID,919.473,VALID,0,VALID,64.7152,VALID,628.746,VALID,25.8589,VALID,359,VALID,0.320703,
2016-08-09, 17:50:04,VALID,919.441,VALID,0,VALID,66.217,VALID,502.61,VALID,25.7808,VALID,2,VALID,0.586719,
2016-08-09, 17:51:04,VALID,919.448,VALID,0,VALID,66.9946,VALID,574.38,VALID,25.7026,VALID,12,VALID,0.225781,
2016-08-09, 17:52:04,VALID,919.375,VALID,0,VALID,66.7506,VALID,639.275,VALID,25.7026,VALID,4,VALID,0,
2016-08-09, 17:53:04,VALID,919.409,VALID,0,VALID,67.4367,VALID,573.521,VALID,25.8393,VALID,4,VALID,0,
2016-08-09, 17:54:04,VALID,919.382,VALID,0,VALID,64.0291,VALID,598.662,VALID,25.8022,VALID,309,VALID,1.45,
2016-08-09, 17:55:04,VALID,919.372,VALID,0,VALID,67.0708,VALID,465.757,VALID,25.7026,VALID,38,VALID,0.135937,
2016-08-09, 17:56:04,VALID,919.313,VALID,0,VALID,66.5219,VALID,519.693,VALID,25.8804,VALID,27,VALID,1.44687,
2016-08-09, 17:57:04,VALID,919.344,VALID,0,VALID,66.6591,VALID,499.279,VALID,26.0346,VALID,11,VALID,0.5875,
2016-08-09, 17:58:04,VALID,919.296,VALID,0,VALID,65.0659,VALID,585.232,VALID,26.0151,VALID,341,VALID,0.06875,
2016-08-09, 17:59:04,VALID,919.298,VALID,0,VALID,65.8358,VALID,584.91,VALID,26.1323,VALID,11,VALID,0,
2016-08-09, 18:00:04,VALID,919.28,VALID,0,VALID,65.3784,VALID,521.842,VALID,26.1889,VALID,17,VALID,0.434766,
2016-08-09, 18:01:04,VALID,919.274,VALID,0,VALID,65.386,VALID,476.179,VALID,26.2474,VALID,316,VALID,0.264062,
2016-08-09, 18:02:04,VALID,919.291,VALID,0,VALID,62.5425,VALID,523.238,VALID,26.2885,VALID,337,VALID,0,
2016-08-09, 18:03:04,VALID,919.279,VALID,0,VALID,63.9681,VALID,434.062,VALID,26.2104,VALID,21,VALID,0.462891,
2016-08-09, 18:04:04,VALID,919.254,VALID,0,VALID,64.8676,VALID,348.861,VALID,26.2104,VALID,24,VALID,0.323047,
2016-08-09, 18:05:04,VALID,919.278,VALID,0,VALID,65.4165,VALID,327.588,VALID,26.2299,VALID,32,VALID,0,